Location: *
(32.8140°S, 174.6161°E)
Time: 23:57:44
(UTC+00:00)

NPP - Pass Details

Date: 10 December 2019
Orbit: 826 x 827 km, 98.7° (Epoch: 27 January)

Event Time Altitude Azimuth Distance (km) Brightness Sun altitude
Exits shadow 13:07:39 51° 154° (SSE) 1,047 4.4 -32.8°
Drops below altitude 10° 13:11:55 10° 185° (S) 2,456 6.9 -32.6°
Sets 13:14:19 0° 188° (S) 3,397 7.7 -32.5°
